Weather History for KAPC - January, 2013

Change the Weather History Date:

Friday, January 25, 2013

  Actual Average Record
Temperature  
Mean Temperature 56 °F 47 °F  
Max Temperature 65 °F 56 °F 70 °F (2014)
Min Temperature 47 °F 37 °F 27 °F (2007)
Degree Days  
Heating Degree Days 9    
Month to date heating degree days 515  
Since 1 July heating degree days 1627  
Cooling Degree Days 0    
Month to date cooling degree days 0  
Year to date cooling degree days 0  
Growing Degree Days 5 (Base 50)    
Moisture  
Dew Point 49 °F    
Average Humidity 84    
Maximum Humidity 100    
Minimum Humidity 67    
Precipitation  
Precipitation 0.00 in - 1.94 in (2008)
Month to date precipitation 0.34  
Year to date precipitation 0.34  
Since 1 July precipitation 8.13  
Sea Level Pressure  
Sea Level Pressure 30.14 in    
Wind  
Wind Speed 4 mph (North)    
Max Wind Speed 13 mph    
Max Gust Speed 36 mph    
Visibility 4 miles    
Events Fog    
T = Trace of Precipitation, MM = Missing Value Source: NWS Daily Summary

Daily Weather History Graph

Daily Weather History Graph

Search for Another Location

Airport or City:

Trip Planner

Search our weather history database for the weather conditions in past years. The results will help you decide how hot, cold, wet, or windy it might be!

Date:

Astronomy

Jan. 25, 2013 Rise Set
Actual Time 7:19 AM PST 5:24 PM PST
Civil Twilight 6:50 AM PST 5:52 PM PST
Nautical Twilight 6:18 AM PST 6:24 PM PST
Astronomical Twilight 5:47 AM PST 6:55 PM PST
Moon 4:26 PM PST (1/25) 6:02 AM PST (1/25)
Length of Visible Light 11h 01m
Length of Day
10h 05m
Waxing Gibbous, 98% of the Moon is Illuminated
Jan 25
Waxing Gibbous
Jan 26
Full
Feb 3
Last Quarter
Feb 9
New
Feb 17
First Quarter

Hourly Weather History & Observations

Time (PST) Temp. Dew Point Humidity Pressure Visibility Wind Dir Wind Speed Gust Speed Precip Events Conditions
12:15 AM 50.0 °F 48.2 °F 94% 30.19 in 1.8 mi Calm Calm - N/A   Mostly Cloudy
12:46 AM 48.2 °F 46.4 °F 93% 30.20 in 0.5 mi Calm Calm - N/A Fog Fog
12:54 AM 46.9 °F 46.0 °F 97% 30.17 in 0.2 mi North 3.5 mph - N/A Fog Fog
1:01 AM 48.2 °F 46.4 °F 93% 30.20 in 0.2 mi NE 4.6 mph - N/A Fog Fog
1:09 AM 48.2 °F 46.4 °F 93% 30.19 in 1.0 mi NE 4.6 mph - N/A   Scattered Clouds
1:19 AM 50.0 °F 48.2 °F 94% 30.19 in 3.0 mi ENE 4.6 mph - N/A   Mostly Cloudy
1:40 AM 48.2 °F 48.2 °F 100% 30.20 in 2.0 mi WNW 3.5 mph - N/A   Overcast
1:54 AM 48.9 °F 46.9 °F 93% 30.18 in 1.8 mi WNW 4.6 mph - N/A   Overcast
2:14 AM 48.2 °F 48.2 °F 100% 30.20 in 2.0 mi Calm Calm - N/A   Overcast
2:54 AM 50.0 °F 48.0 °F 93% 30.17 in 2.5 mi Calm Calm - N/A   Overcast
3:24 AM 51.8 °F 50.0 °F 94% 30.18 in 3.0 mi SSW 4.6 mph - N/A   Overcast
3:35 AM 50.0 °F 48.2 °F 94% 30.18 in 2.5 mi WSW 3.5 mph - N/A   Overcast
3:54 AM 48.9 °F 48.0 °F 97% 30.15 in 1.8 mi NW 8.1 mph - N/A   Overcast
4:34 AM 48.2 °F 48.2 °F 100% 30.17 in 2.0 mi North 3.5 mph - N/A   Overcast
4:40 AM 48.2 °F 46.4 °F 93% 30.17 in 0.8 mi Calm Calm - N/A   Overcast
4:54 AM 48.0 °F 46.9 °F 96% 30.15 in 0.5 mi Calm Calm - N/A Fog Fog
5:10 AM 48.2 °F 48.2 °F 100% 30.18 in 1.0 mi Calm Calm - N/A   Overcast
5:23 AM 48.2 °F 48.2 °F 100% 30.18 in 0.8 mi Calm Calm - N/A   Overcast
5:31 AM 48.2 °F 46.4 °F 93% 30.18 in 0.5 mi Calm Calm - N/A Fog Fog
5:54 AM 48.9 °F 48.0 °F 97% 30.16 in 0.2 mi Calm Calm - N/A Fog Fog
6:02 AM 48.2 °F 48.2 °F 100% 30.18 in 0.2 mi Calm Calm - N/A Fog Fog
6:07 AM 48.2 °F 48.2 °F 100% 30.18 in 0.2 mi Calm Calm - N/A Fog Fog
6:29 AM 48.2 °F 46.4 °F 93% 30.18 in 0.2 mi Calm Calm - N/A Fog Fog
6:47 AM 48.2 °F 48.2 °F 100% 30.18 in 1.0 mi ESE 4.6 mph - N/A   Overcast
6:54 AM 50.0 °F 48.0 °F 93% 30.15 in 1.8 mi East 4.6 mph - N/A   Overcast
7:02 AM 48.2 °F 48.2 °F 100% 30.17 in 3.0 mi Calm Calm - N/A   Scattered Clouds
7:54 AM 48.0 °F 46.9 °F 96% 30.15 in 3.0 mi NNW 4.6 mph - N/A   Scattered Clouds
8:01 AM 48.2 °F 46.4 °F 93% 30.18 in 1.8 mi North 4.6 mph - N/A   Scattered Clouds
8:03 AM 48.2 °F 46.4 °F 93% 30.18 in 0.5 mi North 4.6 mph - N/A Fog Fog
8:36 AM 51.8 °F 51.8 °F 100% 30.18 in 4.0 mi Calm Calm - N/A   Mostly Cloudy
8:54 AM 52.0 °F 51.1 °F 97% 30.15 in 4.0 mi Calm Calm - N/A   Mostly Cloudy
9:54 AM 57.9 °F 52.0 °F 81% 30.15 in 10.0 mi East 9.2 mph - N/A   Scattered Clouds
10:54 AM 61.0 °F 53.1 °F 75% 30.15 in 10.0 mi NE 4.6 mph - N/A   Scattered Clouds
11:54 AM 62.1 °F 52.0 °F 70% 30.12 in 10.0 mi Calm Calm - N/A   Overcast
12:54 PM 63.0 °F 53.1 °F 70% 30.09 in 10.0 mi WSW 4.6 mph - N/A   Mostly Cloudy
1:54 PM 64.0 °F 53.1 °F 67% 30.07 in 10.0 mi SW 6.9 mph - N/A   Scattered Clouds
2:54 PM 64.0 °F 54.0 °F 70% 30.06 in 10.0 mi SSW 5.8 mph - N/A   Scattered Clouds
3:54 PM 64.9 °F 53.1 °F 65% 30.04 in 10.0 mi West 10.4 mph - N/A   Mostly Cloudy
4:54 PM 61.0 °F 53.1 °F 75% 30.02 in 10.0 mi WSW 6.9 mph - N/A   Scattered Clouds
5:54 PM 57.0 °F 52.0 °F 83% 30.03 in 10.0 mi East 3.5 mph - N/A   Partly Cloudy
6:54 PM 55.0 °F 52.0 °F 89% 30.04 in 10.0 mi Calm Calm - N/A   Scattered Clouds
7:54 PM 55.0 °F 51.1 °F 86% 30.03 in 10.0 mi Calm Calm - N/A   Partly Cloudy
8:54 PM 53.1 °F 50.0 °F 89% 30.03 in 10.0 mi SE 4.6 mph - N/A   Clear
9:54 PM 53.1 °F 51.1 °F 93% 30.04 in 10.0 mi South 3.5 mph - N/A   Mostly Cloudy
10:54 PM 53.1 °F 48.9 °F 86% 30.04 in 10.0 mi Calm Calm - N/A   Mostly Cloudy
11:54 PM 50.0 °F 48.0 °F 93% 30.03 in 7.0 mi SE 3.5 mph - N/A   Partly Cloudy